Other Public Products
Issued by NWS Grand Forks, ND

Home | Current Version | Previous Version | Text Only | Print | Product List | Glossary Off
Versions: 1 2 3 4 5 6 7 8 9 10 11 12 13 14 15 16 17 18 19 20 21 22 23 24 25 26 27 28 29 30 31 32 33 34 35 36 37 38 39 40 41 42 43 44 45 46 47 48 49 50

000
FPUS83 KFGF 280131
OPUFGF
PRAIRIE TO PINES WEATHER ROUNDUP
NATIONAL WEATHER SERVICE EASTERN NORTH DAKOTA/GRAND FORKS ND
700 PM CST SAT DEC 27 2014

 **SATELLITE DATA USED TO AUGMENT SKY COVER AT AUTOMATED STATIONS**
 *****  WEATHER ACROSS EASTERN NORTH DAKOTA  *****

CITY           SKY/WX    TMP DP  RH WIND       PRES   REMARKS
GRAND FORKS    FLURRIES  18  16  93 SE3       30.02F
GRAND FORKS AF CLOUDY    18  18 100 E2        30.03S
GRAND CITY NWS   N/A     18 N/A N/A MISG        N/A
BUXTON           N/A     20  19  96 CALM        N/A
DEVILS LAKE    CLOUDY    21  16  79 NW7       29.98R WCI  13
FARGO          CLOUDY    22  17  81 W6        30.03S WCI  14
WAHPETON ARPT  CLOUDY    23  18  80 SW5       30.06S WCI  17
$$

 *****  WEATHER ACROSS CENTRAL AND WESTERN NORTH DAKOTA  *****

CITY           SKY/WX    TMP DP  RH WIND       PRES   REMARKS
JAMESTOWN      CLOUDY    23  18  81 W6        29.99R WCI  16
BISMARCK       CLEAR     19  15  84 W3        30.02S
MINOT          CLOUDY    21  14  74 NW7       30.00R WCI  12
MINOT AFB      CLOUDY    19  18  96 N12       30.01R WCI   7
GARRISON         N/A     19  14  81 NW12      30.00R WCI   7
WILLISTON      LGT SNOW  23  18  81 N3        30.00S
DICKINSON      CLOUDY    22  14  71 W10       29.96S WCI  11
HETTINGER      CLOUDY    22  15  75 W7        30.01S WCI  13
$$

 *****  OTHER OBSERVATIONS NORTHEAST NORTH DAKOTA  *****

CITY           SKY/WX    TMP DP  RH WIND       PRES   REMARKS
WALHALLA       FLURRIES   9   7  92 N10       30.09R WCI  -6
LANGDON        LGT SNOW   9   5  85 NE12      30.00R WCI  -6
CAVALIER       CLOUDY     9   5  85 N13       30.08R WCI  -7
GRAFTON        NOT AVBL
CANDO          CLOUDY    16  10  79 N17       30.02R WCI   0
FORT TOTTEN    NOT AVBL
ROLLA          FLURRIES  10   9  92 N9        30.01R WCI  -2
RUGBY          LGT SNOW  18  18 100 NW8       30.00R WCI   7
 ***** THE ABOVE OBSERVATIONS ARE NON NWS ARE NOT QUALITY
        CONTROLLED AND MAY MIS-REPORT RAIN FOR SNOW...
$$

 *****  OTHER OBSERVATIONS SOUTHEAST NORTH DAKOTA *****

CITY           SKY/WX    TMP DP  RH WIND       PRES   REMARKS
COOPERSTOWN    NOT AVBL
VALLEY CITY    CLOUDY    23  23 100 SW5       30.00R WCI  17
OAKES            N/A     21  21 100 S10       30.02F WCI  10
GWINNER        CLOUDY    25  23  93 SW10      30.04R WCI  15
BUFFALO        NOT AVBL
WYNDMERE         N/A     21  18  86 SW12        N/A  WCI   9
 ***** THE ABOVE OBSERVATIONS ARE NON NWS ARE NOT QUALITY
       CONTROLLED AND MAY MIS-REPORT RAIN FOR SNOW...
$$

  *****  WEATHER ACROSS NORTHERN MINNESOTA  *****

CITY           SKY/WX    TMP DP  RH WIND       PRES   REMARKS
FLAG ISLAND    CLOUDY     9   3  78 NW14      30.00R WCI  -8
WARROAD        FLURRIES  12   7  79 W9G16     30.01S WCI   0
ROSEAU         CLOUDY    12   7  79 NW12      30.02S WCI  -2
HALLOCK        CLOUDY    10   7  85 N9        30.06R WCI  -2
THF RVR FALLS  CLOUDY    16  12  86 W3        30.02S
HALSTAD          N/A     20  16  85 NE2         N/A
FOSSTON        LGT SNOW  16  12  86 SW6       30.01R WCI   7
BAUDETTE       LGT SNOW  14  10  84 VRB3      29.98R FOG
WASKISH        LGT SNOW  16  12  86 CALM      29.99S
CROOKSTON      LGT SNOW  18  16  93 CALM      30.05R
$$
  *****  WEATHER ACROSS CENTRAL AND WEST MINNESOTA  *****

CITY           SKY/WX    TMP DP  RH WIND       PRES   REMARKS
BEMIDJI        CLOUDY    16  12  86 SW3       29.99S
PARK RAPIDS    CLOUDY    19  14  81 W3        29.99F
WADENA         CLOUDY    19  16  86 W5        30.02S WCI  13
DETROIT LAKES  CLOUDY    21  19  93 S7        30.01F WCI  13
MOORHEAD       CLOUDY    23  21  93 SW3       30.04S
FERGUS FALLS   CLOUDY    21  16  79 SW3       30.08R
ELBOW LAKE     CLOUDY    19  17  90 SW6       30.05R WCI  11
MORRIS MN      PTCLDY    16  12  86 SW6       30.06S WCI   7
STAPLES        CLOUDY    19  14  79 W3        30.03S
WHEATON        CLOUDY    18  16  93 CALM      30.09R
$$
  *****  WEATHER ELSEWHERE ACROSS MINNESOTA  *****

CITY           SKY/WX    TMP DP  RH WIND       PRES   REMARKS
DULUTH         MOCLDY    19   7  59 W8        29.96S WCI   9
INTRNTL FALLS  CLOUDY    11   6  81 W7        29.96S WCI   0
ELY            CLOUDY    16   7  67 W5        29.94R WCI   9
CLOQUET        CLOUDY    21   7  53 SW5       29.98S WCI  15
BRAINERD       CLOUDY    21  12  68 W8        30.03R WCI  11
HIBBING        CLOUDY    18   6  59 W6        29.98R WCI  10
ALEXANDRIA     MOCLDY    16  11  80 SW7       30.05R WCI   6
SAINT CLOUD    CLEAR     20  10  65 SW8       30.07S WCI  10
MINNEAPOLIS    CLEAR     13   6  74 W7        30.13R WCI   3
$$

  *****  WEATHER ACROSS SOUTH DAKOTA  *****

CITY           SKY/WX    TMP DP  RH WIND       PRES   REMARKS
SIOUX FALLS    PTCLDY    13   9  84 SW5       30.15S WCI   5
BROOKINGS      NOT AVBL
WATERTOWN      CLEAR      7   3  84 S6        30.07S WCI  -3
HURON          CLEAR     13   9  84 S8        30.11F WCI   2
SISSETON         N/A     23  17  78 W15G25    30.05R WCI  10
ABERDEEN       MOCLDY    20  15  81 SW9       30.07S WCI   9
MITCHELL       CLEAR     14  10  84 SW6       30.16R WCI   5
PIERRE         MOCLDY    21  15  78 SW6       30.07S WCI  13
MOBRIDGE       MOCLDY    23  16  74 CALM      30.00S
RAPID CITY     MOCLDY    19  13  77 CALM      30.03F
$$

  *****  SOME WEATHER IN NEARBY STATES *****

CITY           SKY/WX    TMP DP  RH WIND       PRES   REMARKS
GLASGOW MT     CLOUDY    27  17  66 S5        29.94F WCI  22
GREAT FALLS MT MOCLDY    27  18  69 SW17      29.88F WCI  14
CHEYENNE WY    CLOUDY    21   3  45 SW15      30.02S WCI   8
SCOTTSBLUFF NE CLOUDY    12   7  80 NW3       30.09S
OMAHA NE       CLEAR     22  14  71 CALM      30.26S
DES MOINES IA  PTCLDY    24  18  77 NW7       30.22S WCI  16
DAVENPORT IA   CLOUDY    29  23  78 W15       30.16F WCI  18
CHICAGO IL     CLOUDY    34  26  72 NW17G23   30.08R WCI  23
EAU CLAIRE WI  CLEAR     17  13  84 SW5       30.07F WCI  10
LA CROSSE WI   CLEAR     23  16  74 W6        30.14R WCI  16
$$

  *****  SOME NATIONAL WEATHER *****

CITY           SKY/WX    TMP DP  RH WIND       PRES   REMARKS
LA GUARDIA NY  MOCLDY    48  38  68 S7        30.15F
RALEIGH NC     MOCLDY    54  38  54 S5        30.23F
ATLANTA GA     CLOUDY    56  46  69 S3        30.21F
NEW ORLEANS LA CLOUDY    70  68  93 S10       30.06F FOG
OKLAHOMA CITY  PTCLDY    32  19  58 N9        30.30R WCI  24
ALBUQUERQUE NM PTCLDY    33   8  35 N9        30.22R
SALT LAKE CITY CLOUDY    25  15  66 S7        30.32S WCI  17
LOS ANGELES CA PTCLDY    56  34  43 SW7       30.29F
BOISE ID       CLOUDY    31  21  66 S5        30.23R
SEATTLE WA     MOCLDY    47  41  80 SW8       30.06R
$$

*** WEATHER ACROSS MANITOBA...SASKATCHEWAN AND ONTARIO ***
                ***ONTARIO***

CITY           SKY/WX    TMP DP  RH WIND       PRES   REMARKS
GERALDTON      LGT SNOW  16  12  86 NW5       29.85S WCI   9
THUNDER BAY    CLEAR      7   3  85 W5        29.96  WCI  -2
SIOUX LOOKOUT  FLURRIES   7   3  85 VRB2      29.90
TORONTO        LGT RAIN  48  43  81 SW23G30   29.86F
BIG TROUT LK   FLURRIES  -4  -8  84 W6        29.91F WCI -16
PICKLE LAKE    FLURRIES   0  -6  78 W9        29.86  WCI -16
DRYDEN         FLURRIES   9   5  85 W16       29.91R WCI  -9
KENORA         FLURRIES   5   1  85 NW10      29.96  WCI -10
$$
                *** MANITOBA***

CITY           SKY/WX    TMP DP  RH WIND       PRES   REMARKS
BRANDON        CLEAR     -6  -9  84 NE6       30.08R WCI -18
DAUPHIN        CLOUDY    -6 -11  77 N5        30.17R WCI -17
ISLAND LAKE    PTCLDY   -18 -27  63 W12       30.02R WCI -40
PILOT MOUND      N/A      5   3  92 NE8         N/A  WCI  -8
THE PAS        CLEAR    -17 -22  76 W10       30.17S WCI -37
THOMPSON       FLURRIES -15 -22  70 NW8       30.07S WCI -32
WINNIPEG       PTCLDY    -4  -9  77 NW5       30.12  WCI -15
CHURCHILL      CRYSTALS -15 -20  76 N21G30    30.08R BLWGSNOWWCI -42
GILLAM         LGT SNOW -13 -18  77 N14       30.00S WCI -35
$$
                ***SASKATCHEWAN***

CITY           SKY/WX    TMP DP  RH WIND       PRES   REMARKS
ESTEVAN        CLOUDY    14  10  85 N7        30.02R WCI   4
KINDERSLEY     CLOUDY    12   9  85 E18       29.95R WCI  -5
LLOYDMINSTER   FLURRIES   5   1  85 E10       30.01R WCI -10
PRINCE ALBERT  CLEAR    -18 -22  83 VRB2      30.18R
REGINA         CLOUDY     9   3  78 N5        30.05R WCI   0
YORKTON        CLEAR    -13 -18  77 NW8       30.10R WCI -30
N. BATTLEFORD  CLOUDY     0  -4  85 E13       30.10R WCI -18


USA.gov is the U.S. government's official web portal to all federal, state and local government web resources and services.